Regional Weather Roundup
Issued by NWS

Home | Current Version | Previous Version | Graphics & Text | Print | Product List | Glossary On
Versions: 1 2 3 4 5 6 7 8 9 10 11 12 13 14 15 16 17 18 19 20 21 22 23 24 25 26 27 28 29 30 31 32 33 34 35 36 37 38 39 40 41 42 43 44 45 46 47 48 49 50
000
ASUS43 KTOP 211759
RWRKS

WEATHER ROUNDUP FOR KANSAS
NATIONAL WEATHER SERVICE GOODLAND KS
100 PM CDT SUN SEP 21 2014

NOTE:  "FAIR" INDICATES FEW OR NO CLOUDS BELOW 12,000 FEET WITH NO
SIGNIFICANT WEATHER AND/OR OBSTRUCTIONS TO VISIBILITY.

KSZ001>006-013>018-027>032-041>047-211900-
NORTHWEST KANSAS

CITY           SKY/WX    TMP DP  RH WIND       PRES   REMARKS
GOODLAND       CLOUDY    69  38  32 E9        30.38F
6HR MIN TEMP:  48; 6HR MAX TEMP:  70;

HILL CITY      SUNNY     76  39  26 VRB7      30.32F
6HR MIN TEMP:  53; 6HR MAX TEMP:  77;

RUSSELL        SUNNY     76  44  32 N12G20    30.28S
6HR MIN TEMP:  54; 6HR MAX TEMP:  76;

$$

KSZ061>065-074>080-084>089-211900-
SOUTHWEST KANSAS

CITY           SKY/WX    TMP DP  RH WIND       PRES   REMARKS
DODGE CITY     MOSUNNY   79  35  20 NE15      30.30S
6HR MIN TEMP:  56; 6HR MAX TEMP:  80;

ELKHART          N/A     78  47  33 E14         N/A
GARDEN CITY    MOSUNNY   76  39  26 NE17      30.31F
6HR MIN TEMP:  57; 6HR MAX TEMP:  76;

GREAT BEND     SUNNY     73  48  40 E10       30.28F
LIBERAL        SUNNY     79  45  29 E12       30.30F
$$

KSZ066>073-081>083-090>101-211900-
SOUTHEAST KANSAS

CITY           SKY/WX    TMP DP  RH WIND       PRES   REMARKS
CHANUTE        SUNNY     78  47  33 N12       30.19F
6HR MIN TEMP:  65; 6HR MAX TEMP:  79;

HUTCHINSON     SUNNY     78  50  37 NE10G18   30.25F
6HR MIN TEMP:  61; 6HR MAX TEMP:  79;

NEWTON         SUNNY     75  50  41 N13       30.27F
PARSONS        SUNNY     80  46  30 N10G20    30.19F
6HR MIN TEMP:  66; 6HR MAX TEMP:  80;

WICHITA INTL   MOSUNNY   83  42  23 NE14G25   30.22F
6HR MIN TEMP:  67; 6HR MAX TEMP:  83;

WICHITA JABRA  SUNNY     81  43  26 NE15G22   30.22F
6HR MIN TEMP:  63; 6HR MAX TEMP:  81;

WINFIELD       SUNNY     81  47  30 NE14G22   30.21F
6HR MIN TEMP:  67; 6HR MAX TEMP:  81;

$$

KSZ007>012-019>026-033>040-048>060-102>105-211900-
NORTHEAST KANSAS

CITY           SKY/WX    TMP DP  RH WIND       PRES   REMARKS
CONCORDIA      SUNNY     75  42  30 N13G22    30.26F
6HR MIN TEMP:  53; 6HR MAX TEMP:  75;

EMPORIA        SUNNY     77  51  40 N10       30.22S
6HR MIN TEMP:  58; 6HR MAX TEMP:  77;

LAWRENCE       SUNNY     76  46  34 NW16      30.19F
6HR MIN TEMP:  50; 6HR MAX TEMP:  77;

MANHATTAN      SUNNY     78  42  27 N10       30.23S
6HR MIN TEMP:  52; 6HR MAX TEMP:  78;

OLATHE IND     SUNNY     75  47  36 N21G26    30.19F
6HR MIN TEMP:  56; 6HR MAX TEMP:  75;

OLATHE EXE     SUNNY     75  45  34 N13G22    30.17F
6HR MIN TEMP:  56; 6HR MAX TEMP:  75;

SALINA         SUNNY     78  47  33 N14       30.26S
6HR MIN TEMP:  58; 6HR MAX TEMP:  78;

TOPEKA BILLARD SUNNY     77  47  34 N15G24    30.21S
6HR MIN TEMP:  55; 6HR MAX TEMP:  78;

TOPEKA FORBES  LGT RAIN  76  44  32 N17G23    30.20F
6HR MIN TEMP:  53; 6HR MAX TEMP:  77; 6HR PCP: TRACE;

$$


USA.gov is the U.S. government's official web portal to all federal, state and local government web resources and services.